sat.trackr.live / text

‹ back to catalog

STARLINK-34841

NORAD 65208 · 2025-176L

PAYLOAD ACTIVE UNKNOWN

§ Identity

Operator
Country
US
Launch date
2025-08-14
Launch site
AFETR
Launch vehicle
Mass (kg)
RCS (m²)

Purposes: comms

External: N2YO · Heavens-Above · Gunter

§ Orbital elements

Epoch: 2026-05-25T01:20:38.008608Z

Period
93.85 min
Inclination
53.1583°
Eccentricity
0.0001232
Mean motion
15.34430110 rev/d
Perigee alt
461.8 km
Apogee alt
463.5 km
Semi-major
6,840.8 km
B*
6.0619e-4
RAAN
157.2294°
Arg perigee
94.7736°
Mean anomaly
265.3407°
Rev number
4,482

§ Raw data

STARLINK-348411 65208U 25176L   26145.05599547  .00020179  00000+0  60619-3 0  99972 65208  53.1583 157.2294 0001232  94.7736 265.3407 15.34430110 44829

JSON: /api/v1/satellites/65208 · /tle

For live sub-satellite position, see the globe view (requires WebGL).

§ Visibility from observer

Set your observer location to see the next 7 days of passes ≥ 10°. The values pass through the URL so the page stays shareable.

No JS? Fill the form by hand. The geolocation button needs JavaScript.